Retour au catalogue

STARLINK-5222

ActifCommunicationsVLEO
NORAD 54068·PAYLOAD·🇺🇸 United States

Lancé Oct 20, 2022 depuis Cape Canaveral Space Force Station

Loading…

Prochains Passages (prochaines 24 heures)

TLE

FraisSource: CelesTrak SupGP

Époque: Sep 14, 2026, 21:18 UTC

1 54068C 22136T   26257.88798611  .00009963  00000+0  28506-3 0  2574
2 54068  53.1580 205.7469 0001474 103.1530 349.8852 15.35391090    15

Suivez STARLINK-5222 en temps réel avec AllMySat

Download on the App Store